Home   Weather   Bogota   Past weeks

Flag for Colombia Past Weather in Bogota, Colombia — Yesterday and Last 2 Weeks

Now
64 °F

Scattered clouds.


Feels Like: 64 °F
Forecast: N/A
Wind: 6 mph from East

Location: Bogota / Eldorado

Current Time: Sep 24, 2016 at 5:45:46 PM

Latest Report: Sep 24, 2016 at 5:00 PM


Visibility: N/A

Pressure: 30.29 "Hg (22.28 "Hg at 2618m altitude)

Humidity: 46%

Dew Point: 43 °F

Location of BogotaLocation

Past Weather in Bogota — Graph

°F

Bogota Temperature Yesterday

Maximum temperature yesterday: 68 °F (at 11:00 AM)
Minimum temperature yesterday: 43 °F (at 6:00 AM)
Average temperature yesterday: 58 °F

High & Low Weather Summary for the Past Weeks

 TemperatureHumidityPressure
High70 °F (Sep 16, 1:00 PM)100% (Sep 16, 1:00 AM)30.47 "Hg (Sep 16, 1:00 AM)
Low41 °F (Sep 16, 2:00 AM)31% (Sep 16, 1:00 PM)30.10 "Hg (Sep 19, 4:00 AM)
Average57 °F73%30.35 "Hg
* Reported Sep 9 4:00 PM — Sep 24 4:00 PM, Bogota, Weather by CustomWeather, © 2016

Note: Actual official high and low records may vary slightly from our data, if they occured in-between our weather recording intervals... More about our weather records

Advertising

Bogota Weather History for the Previous 24 Hours

Scroll right to see more
 ConditionsComfort  
Time TempWeatherWind HumidityBarometerVisibility
4:00 PM
Sat, Sep 24
66 °FScattered clouds.7 mph43%30.29 "HgN/A
3:00 PM64 °FScattered clouds.14 mph52%30.30 "HgN/A
2:00 PM61 °FScattered clouds.8 mph59%30.32 "HgN/A
1:00 PM63 °FScattered showers. Partly sunny.8 mph52%30.35 "HgN/A
12:00 PM63 °FScattered showers. Partly sunny.14 mph56%30.38 "HgN/A
11:00 AM63 °FScattered showers. Partly sunny.9 mph59%30.40 "HgN/A
10:00 AM63 °FScattered showers. Partly sunny.9 mph59%30.41 "HgN/A
9:00 AM61 °FScattered clouds.12 mph63%30.41 "HgN/A
8:00 AM57 °FBroken clouds.7 mph72%30.41 "HgN/A
7:00 AM54 °FScattered showers. Partly sunny.12 mph82%30.40 "HgN/A
6:00 AM54 °FScattered showers. Partly sunny.6 mph88%30.37 "HgN/A
5:00 AM50 °FFog.6 mph94%30.36 "HgN/A
4:00 AM52 °FPassing clouds.3 mph88%30.35 "HgN/A
3:00 AM52 °FPassing clouds.No wind88%30.37 "HgN/A
2:00 AM54 °FPassing clouds.2 mph77%30.39 "HgN/A
1:00 AM57 °FScattered showers. Partly cloudy.6 mph67%30.40 "HgN/A
12:00 AM57 °FPassing clouds.6 mph67%30.40 "HgN/A
11:00 PM
Fri, Sep 23
57 °FPassing clouds.7 mph67%30.41 "HgN/A
10:00 PM59 °FPassing clouds.6 mph63%30.42 "HgN/A
9:00 PM59 °FPassing clouds.7 mph63%30.41 "HgN/A
8:00 PM59 °FPartly cloudy.6 mph68%30.36 "HgN/A
7:00 PM61 °FPartly cloudy.6 mph59%30.34 "HgN/A
6:00 PM63 °FPassing clouds.7 mph56%30.30 "HgN/A
5:00 PM64 °FBroken clouds.8 mph49%30.29 "HgN/A
Weather by CustomWeather, © 2016

See weather overviewHow to use our weather pages